Radiation Dose at Monitoring Post of Fukushima Daini Nuclear Power Station
Date,Time,MP-1(microSv/h),MP-2(microSv/h),MP-3(microSv/h),MP-4(microSv/h),MP-5(microSv/h),MP-6(microSv/h),MP-7(microSv/h),Wind Direction,Wind Velocity(m/s),Rain
2015/08/21,00:00,0.517,0.295,0.527,0.486,0.461,0.239,0.208,south-southwest,2.1,Yes
2015/08/21,00:10,0.511,0.292,0.535,0.480,0.468,0.237,0.209,south,2.1,Yes
2015/08/21,00:20,0.512,0.292,0.527,0.487,0.465,0.239,0.208,south,2.1,Yes
2015/08/21,00:30,0.516,0.293,0.528,0.484,0.461,0.238,0.207,south-southwest,2.9,Yes
2015/08/21,00:40,0.511,0.292,0.532,0.478,0.467,0.237,0.209,south-southwest,3.0,Yes
2015/08/21,00:50,0.512,0.293,0.527,0.486,0.464,0.238,0.210,southwest,3.9,Yes
2015/08/21,01:00,0.515,0.294,0.526,0.485,0.460,0.238,0.208,south-southwest,4.1,Yes
2015/08/21,01:10,0.512,0.293,0.533,0.479,0.465,0.239,0.209,south-southwest,3.3,Yes
2015/08/21,01:20,0.511,0.293,0.529,0.486,0.464,0.240,0.209,southwest,3.1,Yes
2015/08/21,01:30,0.518,0.296,0.528,0.487,0.459,0.239,0.208,south-southwest,3.3,Yes
2015/08/21,01:40,0.513,0.294,0.534,0.480,0.468,0.240,0.212,southwest,2.2,Yes
2015/08/21,01:50,0.514,0.295,0.530,0.487,0.467,0.241,0.210,south,1.0,Yes
2015/08/21,02:00,0.519,0.296,0.528,0.487,0.463,0.240,0.211,southeast,0.9,Yes
2015/08/21,02:10,0.514,0.293,0.531,0.480,0.469,0.240,0.211,south-southeast,1.4,Yes
2015/08/21,02:20,0.509,0.293,0.528,0.486,0.467,0.240,0.209,south-southeast,2.2,Yes
2015/08/21,02:30,0.517,0.294,0.527,0.487,0.460,0.238,0.210,south,2.7,Yes
2015/08/21,02:40,0.511,0.292,0.532,0.480,0.466,0.239,0.210,south,1.9,Yes
2015/08/21,02:50,0.512,0.294,0.527,0.482,0.466,0.238,0.208,south,1.1,Yes
2015/08/21,03:00,0.516,0.294,0.526,0.484,0.459,0.238,0.209,south,1.1,No
2015/08/21,03:10,0.513,0.290,0.533,0.479,0.465,0.238,0.207,south-southeast,1.0,No
2015/08/21,03:20,0.508,0.293,0.526,0.481,0.465,0.237,0.207,south,1.0,No
2015/08/21,03:30,0.514,0.292,0.525,0.485,0.460,0.237,0.208,south,1.6,No
2015/08/21,03:40,0.511,0.290,0.533,0.478,0.466,0.236,0.206,south-southeast,0.9,No
2015/08/21,03:50,0.509,0.292,0.526,0.483,0.465,0.236,0.205,-,CALM,Yes
2015/08/21,04:00,0.517,0.292,0.526,0.484,0.459,0.237,0.207,-,CALM,Yes
2015/08/21,04:10,0.512,0.290,0.530,0.479,0.466,0.237,0.207,north-northwest,0.9,Yes
2015/08/21,04:20,0.508,0.295,0.525,0.484,0.465,0.238,0.208,north-northwest,1.3,Yes
2015/08/21,04:30,0.516,0.292,0.525,0.486,0.457,0.241,0.209,north-northwest,1.4,Yes
2015/08/21,04:40,0.513,0.291,0.533,0.480,0.468,0.238,0.208,north-northwest,1.6,Yes
2015/08/21,04:50,0.509,0.295,0.527,0.482,0.465,0.237,0.207,north-northwest,1.4,No
2015/08/21,05:00,0.514,0.291,0.524,0.484,0.459,0.237,0.208,north,0.7,No
2015/08/21,05:10,0.512,0.290,0.528,0.477,0.465,0.236,0.206,-,CALM,No
2015/08/21,05:20,0.506,0.293,0.525,0.480,0.462,0.237,0.207,-,CALM,No
2015/08/21,05:30,0.514,0.289,0.524,0.484,0.458,0.237,0.206,-,CALM,Yes
2015/08/21,05:40,0.511,0.292,0.530,0.476,0.462,0.235,0.205,-,CALM,No
2015/08/21,05:50,0.506,0.291,0.526,0.480,0.461,0.235,0.206,northwest,1.0,Yes
2015/08/21,06:00,0.511,0.288,0.521,0.484,0.457,0.237,0.207,northwest,1.5,No
2015/08/21,06:10,0.512,0.289,0.529,0.478,0.464,0.236,0.205,north-northwest,1.6,No
2015/08/21,06:20,0.506,0.292,0.526,0.478,0.463,0.237,0.206,north-northwest,1.9,No
2015/08/21,06:30,0.510,0.288,0.520,0.483,0.455,0.236,0.206,northwest,1.6,No
2015/08/21,06:40,0.512,0.288,0.526,0.479,0.460,0.235,0.204,northwest,1.6,No
2015/08/21,06:50,0.507,0.290,0.527,0.478,0.463,0.235,0.205,north-northwest,2.3,No
2015/08/21,07:00,0.508,0.289,0.523,0.482,0.457,0.236,0.206,north-northwest,3.0,No
2015/08/21,07:10,0.512,0.289,0.524,0.479,0.459,0.234,0.205,north-northwest,3.0,Yes
2015/08/21,07:20,0.508,0.291,0.526,0.476,0.463,0.234,0.203,north-northwest,2.9,No
2015/08/21,07:30,0.504,0.288,0.522,0.481,0.458,0.237,0.205,north,3.9,No
2015/08/21,07:40,0.512,0.287,0.521,0.479,0.455,0.235,0.205,north-northwest,3.8,Yes
2015/08/21,07:50,0.511,0.289,0.527,0.475,0.465,0.235,0.204,north-northwest,3.5,No
2015/08/21,08:00,0.506,0.291,0.524,0.477,0.462,0.235,0.205,north-northwest,3.0,No
2015/08/21,08:10,0.507,0.288,0.519,0.482,0.455,0.234,0.205,north-northwest,2.2,No
2015/08/21,08:20,0.511,0.285,0.526,0.478,0.457,0.234,0.205,north-northwest,1.8,No
2015/08/21,08:30,0.508,0.289,0.526,0.475,0.462,0.234,0.203,north,1.0,No
2015/08/21,08:40,0.504,0.292,0.522,0.480,0.457,0.234,0.203,east-northeast,0.7,No
2015/08/21,08:50,0.509,0.288,0.518,0.482,0.455,0.235,0.204,north-northeast,0.8,No
2015/08/21,09:00,0.512,0.286,0.525,0.477,0.456,0.235,0.205,north,1.8,No
2015/08/21,09:10,0.507,0.288,0.526,0.474,0.461,0.236,0.203,north-northeast,2.3,No
2015/08/21,09:20,0.504,0.291,0.523,0.478,0.463,0.234,0.204,north-northeast,2.0,No
2015/08/21,09:30,0.514,0.290,0.519,0.481,0.458,0.235,0.205,north,2.2,No
2015/08/21,09:40,0.511,0.286,0.527,0.478,0.455,0.235,0.204,north-northeast,2.8,No
2015/08/21,09:50,0.509,0.288,0.524,0.473,0.461,0.234,0.204,north-northeast,2.7,No
2015/08/21,10:00,0.505,0.291,0.521,0.477,0.462,0.234,0.203,north-northeast,3.2,No
2015/08/21,10:10,0.511,0.290,0.519,0.481,0.459,0.235,0.205,north-northeast,2.3,No
2015/08/21,10:20,0.510,0.287,0.525,0.479,0.458,0.235,0.203,north,1.4,Yes
2015/08/21,10:30,0.505,0.287,0.525,0.474,0.457,0.234,0.205,north,2.5,No
2015/08/21,10:40,0.506,0.290,0.522,0.478,0.463,0.234,0.203,north,2.3,No
2015/08/21,10:50,0.510,0.290,0.519,0.481,0.460,0.234,0.204,north,1.8,No
2015/08/21,11:00,0.508,0.288,0.526,0.479,0.457,0.236,0.204,north,2.3,No
2015/08/21,11:10,0.504,0.286,0.526,0.475,0.456,0.235,0.203,north-northeast,2.9,No
2015/08/21,11:20,0.510,0.287,0.521,0.473,0.460,0.233,0.204,north,3.2,No
2015/08/21,11:30,0.512,0.292,0.519,0.482,0.463,0.234,0.205,north,1.4,Yes
2015/08/21,11:40,0.509,0.290,0.524,0.481,0.461,0.235,0.205,north-northeast,1.8,Yes
2015/08/21,11:50,0.504,0.288,0.526,0.478,0.458,0.235,0.204,north-northeast,2.0,Yes
2015/08/21,12:00,0.511,0.285,0.521,0.472,0.454,0.234,0.202,north-northeast,2.3,Yes
2015/08/21,12:10,0.510,0.288,0.516,0.476,0.462,0.233,0.203,north-northeast,1.9,Yes
2015/08/21,12:20,0.506,0.289,0.522,0.481,0.460,0.234,0.204,north-northeast,2.2,Yes
2015/08/21,12:30,0.505,0.286,0.524,0.476,0.457,0.234,0.203,north,1.8,Yes
2015/08/21,12:40,0.510,0.288,0.520,0.472,0.454,0.234,0.202,north,2.2,Yes
2015/08/21,12:50,0.507,0.291,0.514,0.477,0.463,0.232,0.203,north,2.1,No
2015/08/21,13:00,0.505,0.288,0.522,0.478,0.460,0.233,0.202,north-northeast,2.5,No
2015/08/21,13:10,0.506,0.286,0.521,0.473,0.458,0.234,0.203,north-northeast,2.8,No
2015/08/21,13:20,0.510,0.289,0.519,0.471,0.452,0.234,0.201,north,3.0,No
2015/08/21,13:30,0.506,0.290,0.515,0.478,0.458,0.232,0.200,north,2.5,No
2015/08/21,13:40,0.502,0.287,0.524,0.476,0.460,0.233,0.203,north,3.3,No
2015/08/21,13:50,0.511,0.284,0.520,0.474,0.457,0.234,0.202,north,2.8,No
2015/08/21,14:00,0.509,0.286,0.516,0.470,0.455,0.233,0.201,north,2.9,No
2015/08/21,14:10,0.507,0.289,0.513,0.476,0.455,0.234,0.201,north,2.7,No
2015/08/21,14:20,0.504,0.288,0.522,0.478,0.461,0.232,0.201,north,2.2,No
2015/08/21,14:30,0.510,0.285,0.521,0.476,0.459,0.232,0.203,north,1.6,No
2015/08/21,14:40,0.507,0.286,0.516,0.469,0.456,0.233,0.201,north,2.0,No
2015/08/21,14:50,0.506,0.289,0.518,0.477,0.455,0.233,0.201,north,2.5,No
2015/08/21,15:00,0.505,0.288,0.523,0.479,0.461,0.232,0.201,north-northwest,2.0,No
2015/08/21,15:10,0.510,0.285,0.521,0.475,0.457,0.232,0.203,north,2.6,No
2015/08/21,15:20,0.508,0.287,0.515,0.471,0.456,0.232,0.204,north-northwest,2.5,No
2015/08/21,15:30,0.504,0.289,0.518,0.479,0.458,0.234,0.202,north-northwest,2.5,No
2015/08/21,15:40,0.508,0.288,0.522,0.479,0.464,0.233,0.201,north,2.2,No
2015/08/21,15:50,0.510,0.285,0.519,0.473,0.460,0.232,0.203,north-northwest,2.2,No
2015/08/21,16:00,0.509,0.287,0.515,0.472,0.454,0.233,0.202,north-northwest,2.4,No
2015/08/21,16:10,0.504,0.289,0.525,0.480,0.457,0.234,0.200,north,3.0,Yes
2015/08/21,16:20,0.511,0.287,0.521,0.478,0.460,0.233,0.201,north,2.6,No
2015/08/21,16:30,0.510,0.285,0.517,0.473,0.456,0.232,0.204,north-northwest,2.3,No
2015/08/21,16:40,0.504,0.287,0.518,0.473,0.454,0.232,0.202,north-northwest,2.3,No
2015/08/21,16:50,0.503,0.290,0.524,0.479,0.460,0.234,0.201,north,2.5,No
2015/08/21,17:00,0.509,0.286,0.522,0.477,0.461,0.234,0.200,north,2.6,No
2015/08/21,17:10,0.511,0.285,0.515,0.472,0.457,0.232,0.202,north,2.3,No
2015/08/21,17:20,0.506,0.289,0.519,0.474,0.455,0.232,0.201,north,2.0,No
2015/08/21,17:30,0.506,0.290,0.522,0.480,0.460,0.234,0.202,north-northwest,2.4,No
2015/08/21,17:40,0.511,0.288,0.518,0.476,0.458,0.234,0.201,northwest,2.8,No
2015/08/21,17:50,0.508,0.285,0.516,0.471,0.456,0.233,0.202,north-northwest,2.7,No
2015/08/21,18:00,0.504,0.289,0.523,0.478,0.458,0.233,0.203,north-northwest,2.8,No
2015/08/21,18:10,0.508,0.289,0.522,0.480,0.460,0.234,0.201,north-northwest,2.6,No
2015/08/21,18:20,0.512,0.286,0.516,0.475,0.458,0.235,0.203,north,2.2,No
2015/08/21,18:30,0.505,0.287,0.518,0.474,0.455,0.233,0.202,north,2.0,No
2015/08/21,18:40,0.503,0.289,0.522,0.481,0.460,0.233,0.202,north,1.7,No
2015/08/21,18:50,0.512,0.288,0.521,0.479,0.461,0.234,0.203,north,1.1,No
2015/08/21,19:00,0.510,0.284,0.518,0.473,0.455,0.233,0.204,-,CALM,No
2015/08/21,19:10,0.505,0.287,0.522,0.474,0.457,0.232,0.202,south-southwest,0.5,No
2015/08/21,19:20,0.504,0.289,0.524,0.479,0.461,0.233,0.201,northeast,0.6,No
2015/08/21,19:30,0.510,0.287,0.519,0.477,0.458,0.233,0.203,north-northeast,0.9,Yes
2015/08/21,19:40,0.509,0.285,0.515,0.472,0.454,0.233,0.202,-,CALM,Yes
2015/08/21,19:50,0.504,0.291,0.522,0.477,0.458,0.233,0.201,north-northeast,1.2,Yes
2015/08/21,20:00,0.508,0.289,0.523,0.479,0.460,0.235,0.202,north-northeast,0.9,Yes
2015/08/21,20:10,0.513,0.287,0.518,0.475,0.459,0.234,0.203,north,3.9,Yes
2015/08/21,20:20,0.508,0.290,0.521,0.473,0.454,0.235,0.202,north,1.5,Yes
2015/08/21,20:30,0.507,0.289,0.525,0.480,0.462,0.235,0.204,west,0.5,Yes
2015/08/21,20:40,0.514,0.286,0.520,0.480,0.460,0.235,0.204,-,CALM,Yes
2015/08/21,20:50,0.512,0.289,0.517,0.474,0.456,0.234,0.201,northwest,0.5,No
2015/08/21,21:00,0.505,0.290,0.524,0.477,0.460,0.234,0.203,north,0.7,Yes
2015/08/21,21:10,0.508,0.289,0.522,0.482,0.461,0.234,0.204,-,CALM,No
2015/08/21,21:20,0.512,0.287,0.517,0.475,0.458,0.233,0.202,south,0.6,No
2015/08/21,21:30,0.508,0.289,0.525,0.474,0.459,0.234,0.202,south-southwest,1.0,No
2015/08/21,21:40,0.506,0.289,0.522,0.481,0.463,0.234,0.204,south-southeast,1.0,Yes
2015/08/21,21:50,0.514,0.288,0.519,0.477,0.459,0.233,0.203,south-southwest,2.2,Yes
2015/08/21,22:00,0.508,0.290,0.521,0.472,0.453,0.234,0.202,south-southwest,3.1,No
2015/08/21,22:10,0.505,0.289,0.527,0.479,0.461,0.234,0.204,south-southwest,3.3,No
2015/08/21,22:20,0.512,0.286,0.520,0.479,0.461,0.234,0.203,south,2.9,Yes
2015/08/21,22:30,0.512,0.289,0.517,0.475,0.453,0.234,0.201,south-southwest,3.0,Yes
2015/08/21,22:40,0.507,0.290,0.522,0.474,0.460,0.234,0.204,south,3.4,Yes
2015/08/21,22:50,0.507,0.286,0.521,0.479,0.460,0.233,0.204,south,3.7,Yes
2015/08/21,23:00,0.511,0.289,0.517,0.477,0.456,0.233,0.201,south,4.2,Yes
2015/08/21,23:10,0.508,0.289,0.524,0.474,0.457,0.234,0.204,south,4.0,Yes
2015/08/21,23:20,0.503,0.288,0.526,0.479,0.460,0.234,0.203,south,3.2,Yes
2015/08/21,23:30,0.513,0.287,0.520,0.479,0.459,0.233,0.203,south,3.5,Yes
2015/08/21,23:40,0.512,0.291,0.522,0.473,0.455,0.236,0.205,south-southwest,3.3,No
2015/08/21,23:50,0.505,0.287,0.526,0.476,0.464,0.234,0.205,south,3.2,No
